一网星座-0403星 (ONEWEB-0403 )

导读 | 星芒AI

ONEWE-0403 是 OneWeb 卫星通信星座计划中的一颗低轨通信卫星,旨在为全球提供高速互联网服务。该卫星由空客防务与航天公司制造,采用标准化设计以降低发射和运营成本。它运行在约 1200 公里的近地轨道,与其他 OneWeb 卫星协同工作,支持偏远和未覆盖地区的宽带接入。该星座计划由数百颗卫星组成,致力于实现全球无缝连接。ONEWE-0403 的成功部署进一步推动了 OneWeb 在全球卫星互联网市场的布局。

基本信息
目录编号:
50483
目录名称:
ONEWEB-0403
国际标识:
2021-132Q
轨道中心:
EARTH
卫星名称:
一网星座-0403星
卫星全名:
一网星座-0403星 (ONEWEB-0403 )
卫星状态:
在轨 (已飞行1449 天)
发射日期:
2021-12-27 UTC
国别 :
英国 (GB)
星等 :
--
轨道信息
数据来源 国际轨道数据 AOE轨道数据
星历时间 2025-12-15T03:31:37+0800
23小时前
查看轨道信息
2025-12-10T03:00:00+0800
6天前
查看轨道信息
半长轴 7567.883km 7567.876km
偏心率 0.0001728 0.0001665
轨道倾角 87.918° 87.919°
近地点辐角 97.141° 100.221°
升交点赤经 12.069° 13.067°
平近点角 262.992° 193.007°
近地点 1188.44km 1188.48km
远地点 1191.056km 1191.002km
周期 109.200分钟 109.200分钟
每日圈数 13.186853 13.186872
详细信息
平衡模式:
三轴稳定
覆盖范围:
全球
运营商:
一网卫星公司
运营商所在国:
英国
制造商(研发单位):
一网卫星公司
制造商所在国:
英国
使用方式:
暂无
卫星简介
OneWeb卫星网络由648颗重约125公斤的微型卫星组成,运行在1200公里的轨道上。 每颗卫星都能够提供至少每秒8千兆位的吞吐量,以使用其高吞吐量的Ku频段有效载荷为家庭和移动平台提供互联网接入。该卫星仍在工作。
2D轨道图
3D轨道图
轨道高度分析图
轨道倾角分析图
轨道综合分析图
查看轨道综合分析图